Weather in Baksan

Russia / The Kabardino-Balkar Republic     43°40′54″N   43°32′04″E
temp.,
°C
wind,
m/s
gust,
m/s
humid.,
%
clouds,
%
prec.,
mm/h
press.,
hPa
HPBL,
m
5 december, sun
sun500:00+6s22447 0.0 101210
03:00+6sw2239100 0.0 101210
06:00+6w1139100 0.0 101010
09:00+8nw2240100 0.0 101220
12:00+10n2438100 0.0 1012246
15:00+9ese0046100 0.0 101319
18:00+7sse115068 0.0 101410
21:00+7sw11546 0.0 101610
6 december, mon
mon600:00+6wnw11575 0.0 101710
03:00+5w115716 0.0 101910
06:00+4sw116012 0.0 102010
09:00+6sse11580 0.0 102123
12:00+9ese33475 0.0 1020332
15:00+9ese234618 0.0 1020325
18:00+6sse22605 0.0 102311
21:00+5s11640 0.0 102310
7 december, tue
tue700:00+5s12650 0.0 102210
03:00+4sse11640 0.0 102210
06:00+4sse22650 0.0 102310
09:00+6se22600 0.0 102248
12:00+9ese34480 0.0 1020271
15:00+9ese35492 0.0 1018329
18:00+5se22760 0.0 101825
21:00+4ese11860 0.0 101610
8 december, wed
wed800:00+2e119524 0.0 101511
03:00+2e119882 0.0 101370
06:00+3ene019690 0.0 1012102
09:00+3nne119051 0.0 1012229
12:00+8ne2163100 0.0 1009257
15:00+9nne11570 0.0 1008242
18:00+6nnw11757 0.0 101010
21:00+6wnw116762 0.0 101010
9 december, thu
thu900:00+6sw115235 0.0 101010
03:00+7w224699 0.0 101312
06:00+7w2256100 0.0 101414
09:00+8wsw2262100 0.0 101712
12:00+10wnw3560100 0.0 1016378
15:00+11wsw2462100 0.0 1017192
18:00+9wsw1174100 0.0 101912
21:00+8nne1181100 0.0 102120